• In Austria
  • List of Countries
  • For 7 days
  • Water Temperature
  • Satellite Maps
  • Weather Map
  • News
  • Weather Widgets
  • user-avatar
    Login

    Hourly Weather Wiktoria

    Today, 25 February, Sunday

    Time Temperature Precipitation Wind Pressure Humidity
    00:00 +17°C° 0 mm 6 mps 743 mmHg 71%
    01:00 +16°C° 0 mm 6 mps 744 mmHg 71%
    02:00 +16°C° 0 mm 6 mps 744 mmHg 71%
    03:00 +16°C° 0 mm 6 mps 744 mmHg 70%
    04:00 +15°C° 0 mm 7 mps 743 mmHg 70%
    05:00 +15°C° 0 mm 7 mps 744 mmHg 68%
    06:00 +16°C° 0 mm 7 mps 744 mmHg 67%
    07:00 +16°C° 0 mm 7 mps 744 mmHg 65%
    08:00 +17°C° 0 mm 7 mps 744 mmHg 59%
    09:00 +20°C° 0 mm 7 mps 745 mmHg 52%
    10:00 +21°C° 0 mm 7 mps 745 mmHg 46%
    11:00 +22°C° 0 mm 7 mps 744 mmHg 43%
    12:00 +23°C° 0 mm 7 mps 744 mmHg 40%
    13:00 +24°C° 0 mm 7 mps 744 mmHg 37%
    14:00 +24°C° 0 mm 7 mps 744 mmHg 36%
    15:00 +26°C° 0 mm 7 mps 744 mmHg 36%
    16:00 +26°C° 0 mm 7 mps 744 mmHg 35%
    17:00 +24°C° 0 mm 7 mps 745 mmHg 39%
    18:00 +23°C° 0 mm 6 mps 745 mmHg 43%
    19:00 +22°C° 0 mm 5 mps 745 mmHg 46%
    20:00 +21°C° 0 mm 5 mps 746 mmHg 52%
    21:00 +20°C° 0 mm 5 mps 747 mmHg 57%
    22:00 +19°C° 0 mm 5 mps 747 mmHg 62%
    23:00 +19°C° 0 mm 4 mps 747 mmHg 63%

    Tomorrow, 26 February, Monday

    Time Temperature Precipitation Wind Pressure Humidity
    00:00 +19°C° 0 mm 4 mps 748 mmHg 63%
    01:00 +19°C° 0 mm 4 mps 748 mmHg 63%
    02:00 +18°C° 0 mm 3 mps 748 mmHg 65%
    03:00 +18°C° 0 mm 3 mps 748 mmHg 67%
    04:00 +17°C° 0 mm 3 mps 748 mmHg 69%
    05:00 +17°C° 0 mm 3 mps 749 mmHg 69%
    06:00 +17°C° 0 mm 3 mps 749 mmHg 69%
    07:00 +17°C° 0 mm 3 mps 749 mmHg 69%
    08:00 +19°C° 0 mm 3 mps 750 mmHg 60%
    09:00 +23°C° 0 mm 2 mps 750 mmHg 51%
    10:00 +25°C° 0 mm 2 mps 750 mmHg 42%
    11:00 +27°C° 0 mm 2 mps 750 mmHg 39%
    12:00 +29°C° 0 mm 1 mps 749 mmHg 35%
    13:00 +30°C° 0 mm 1 mps 749 mmHg 32%
    14:00 +31°C° 0 mm 1 mps 749 mmHg 30%
    15:00 +31°C° 0 mm 2 mps 748 mmHg 29%
    16:00 +31°C° 0 mm 2 mps 748 mmHg 28%
    17:00 +30°C° 0 mm 2 mps 748 mmHg 31%
    18:00 +28°C° 0 mm 2 mps 748 mmHg 34%
    19:00 +27°C° 0 mm 2 mps 748 mmHg 37%
    20:00 +25°C° 0 mm 2 mps 749 mmHg 41%
    21:00 +24°C° 0 mm 2 mps 749 mmHg 45%
    22:00 +23°C° 0 mm 2 mps 750 mmHg 48%
    23:00 +21°C° 0 mm 2 mps 750 mmHg 50%

    Day after tomorrow, 27 February, Tuesday

    Time Temperature Precipitation Wind Pressure Humidity
    00:00 +21°C° 0 mm 3 mps 750 mmHg 52%
    01:00 +20°C° 0 mm 3 mps 750 mmHg 54%
    02:00 +19°C° 0 mm 3 mps 750 mmHg 56%
    03:00 +19°C° 0 mm 3 mps 750 mmHg 58%
    04:00 +19°C° 0 mm 3 mps 750 mmHg 59%
    05:00 +19°C° 0 mm 3 mps 750 mmHg 60%
    06:00 +18°C° 0 mm 3 mps 751 mmHg 61%
    07:00 +18°C° 0 mm 3 mps 751 mmHg 61%
    08:00 +20°C° 0 mm 3 mps 751 mmHg 54%
    09:00 +23°C° 0 mm 4 mps 751 mmHg 47%
    10:00 +26°C° 0 mm 4 mps 751 mmHg 41%
    11:00 +27°C° 0 mm 4 mps 750 mmHg 37%
    12:00 +29°C° 0 mm 3 mps 750 mmHg 33%
    13:00 +30°C° 0 mm 3 mps 749 mmHg 30%
    14:00 +31°C° 0 mm 3 mps 748 mmHg 28%
    15:00 +33°C° 0 mm 3 mps 748 mmHg 26%
    16:00 +34°C° 0 mm 3 mps 747 mmHg 24%
    17:00 +31°C° 0 mm 3 mps 747 mmHg 26%
    18:00 +29°C° 0 mm 3 mps 747 mmHg 29%
    19:00 +27°C° 0 mm 2 mps 747 mmHg 32%
    20:00 +26°C° 0 mm 2 mps 747 mmHg 33%
    21:00 +25°C° 0 mm 3 mps 747 mmHg 34%
    22:00 +24°C° 0 mm 3 mps 747 mmHg 35%
    23:00 +24°C° 0 mm 3 mps 747 mmHg 35%

    28 February, Wednesday

    Time Temperature Precipitation Wind Pressure Humidity
    00:00 +22°C° 0 mm 3 mps 746 mmHg 35%
    01:00 +21°C° 0 mm 3 mps 746 mmHg 35%
    02:00 +21°C° 0 mm 4 mps 745 mmHg 37%
    03:00 +21°C° 0 mm 4 mps 745 mmHg 39%
    04:00 +21°C° 0 mm 5 mps 744 mmHg 41%
    05:00 +21°C° 0 mm 5 mps 744 mmHg 43%
    06:00 +22°C° 0 mm 5 mps 744 mmHg 45%
    07:00 +22°C° 0 mm 5 mps 745 mmHg 46%
    08:00 +25°C° 0 mm 5 mps 745 mmHg 40%
    09:00 +28°C° 0 mm 6 mps 746 mmHg 34%
    10:00 +30°C° 0 mm 6 mps 746 mmHg 28%
    11:00 +30°C° 0 mm 6 mps 746 mmHg 25%
    12:00 +32°C° 0 mm 7 mps 746 mmHg 23%
    13:00 +32°C° 0 mm 7 mps 745 mmHg 20%
    14:00 +32°C° 0 mm 7 mps 745 mmHg 20%
    15:00 +32°C° 0 mm 7 mps 745 mmHg 20%
    16:00 +32°C° 0 mm 7 mps 746 mmHg 20%
    17:00 +29°C° 0 mm 6 mps 746 mmHg 24%
    18:00 +27°C° 0 mm 5 mps 747 mmHg 28%
    19:00 +25°C° 0 mm 5 mps 748 mmHg 32%
    20:00 +22°C° 0 mm 5 mps 748 mmHg 39%
    21:00 +21°C° 0 mm 5 mps 749 mmHg 46%
    22:00 +19°C° 0 mm 5 mps 750 mmHg 54%
    23:00 +17°C° 0 mm 5 mps 750 mmHg 58%

    1 March, Thursday

    Time Temperature Precipitation Wind Pressure Humidity
    00:00 +16°C° 0 mm 5 mps 750 mmHg 63%
    01:00 +15°C° 0 mm 5 mps 750 mmHg 67%
    02:00 +14°C° 0 mm 4 mps 750 mmHg 69%
    03:00 +14°C° 0 mm 4 mps 750 mmHg 71%
    04:00 +13°C° 0 mm 4 mps 750 mmHg 72%
    05:00 +14°C° 0 mm 4 mps 751 mmHg 72%
    06:00 +14°C° 0 mm 4 mps 751 mmHg 72%
    07:00 +14°C° 0 mm 4 mps 751 mmHg 72%
    08:00 +16°C° 0 mm 5 mps 751 mmHg 64%
    09:00 +20°C° 0 mm 5 mps 751 mmHg 56%
    10:00 +22°C° 0 mm 5 mps 752 mmHg 48%
    11:00 +25°C° 0 mm 5 mps 751 mmHg 43%
    12:00 +26°C° 0 mm 5 mps 751 mmHg 38%
    13:00 +28°C° 0 mm 5 mps 750 mmHg 34%
    14:00 +28°C° 0 mm 6 mps 750 mmHg 33%
    15:00 +29°C° 0 mm 6 mps 749 mmHg 32%
    16:00 +29°C° 0 mm 6 mps 749 mmHg 32%
    17:00 +27°C° 0 mm 6 mps 749 mmHg 36%
    18:00 +24°C° 0 mm 6 mps 750 mmHg 41%
    19:00 +22°C° 0 mm 6 mps 750 mmHg 46%
    20:00 +21°C° 0 mm 6 mps 750 mmHg 51%
    21:00 +20°C° 0 mm 5 mps 751 mmHg 56%
    22:00 +19°C° 0 mm 5 mps 751 mmHg 61%
    23:00 +17°C° 0 mm 5 mps 751 mmHg 64%

    2 March, Friday

    Time Temperature Precipitation Wind Pressure Humidity
    00:00 +17°C° 0 mm 4 mps 751 mmHg 68%
    01:00 +15°C° 0 mm 4 mps 751 mmHg 71%
    02:00 +15°C° 0 mm 4 mps 751 mmHg 74%
    03:00 +14°C° 0 mm 3 mps 750 mmHg 76%
    04:00 +14°C° 0 mm 3 mps 750 mmHg 79%
    05:00 +14°C° 0 mm 3 mps 751 mmHg 77%
    06:00 +14°C° 0 mm 3 mps 751 mmHg 76%
    07:00 +14°C° 0 mm 3 mps 751 mmHg 74%
    08:00 +18°C° 0 mm 3 mps 751 mmHg 65%
    09:00 +21°C° 0 mm 2 mps 751 mmHg 56%
    10:00 +25°C° 0 mm 2 mps 751 mmHg 47%
    11:00 +27°C° 0 mm 2 mps 750 mmHg 42%
    12:00 +29°C° 0 mm 2 mps 749 mmHg 37%
    13:00 +31°C° 0 mm 1 mps 749 mmHg 31%
    14:00 +31°C° 0 mm 1 mps 748 mmHg 29%
    15:00 +31°C° 0 mm 1 mps 748 mmHg 27%
    16:00 +32°C° 0 mm 1 mps 747 mmHg 25%
    17:00 +30°C° 0 mm 2 mps 747 mmHg 28%
    18:00 +29°C° 0 mm 2 mps 748 mmHg 32%
    19:00 +27°C° 0 mm 2 mps 748 mmHg 35%
    20:00 +26°C° 0 mm 3 mps 748 mmHg 39%
    21:00 +25°C° 0 mm 3 mps 748 mmHg 44%
    22:00 +22°C° 0 mm 3 mps 748 mmHg 49%
    23:00 +22°C° 0 mm 3 mps 747 mmHg 51%
    Show more